Weather History for Palm Springs, CA

Change the Weather History Date:

Thursday, September 20, 2012

  Actual Average Record
Temperature  
Mean Temperature 94 °F 85 °F  
Max Temperature 109 °F 99 °F 113 °F (1975)
Min Temperature 79 °F 71 °F 50 °F (1965)
Degree Days  
Heating Degree Days 0 0  
Month to date heating degree days 0 0  
Since 1 July heating degree days 0 0  
Cooling Degree Days 29 20  
Month to date cooling degree days 524 462  
Year to date cooling degree days 3942 3546  
Growing Degree Days 45 (Base 50)    
Moisture  
Dew Point 41 °F    
Average Humidity 18    
Maximum Humidity 27    
Minimum Humidity 9    
Precipitation  
Precipitation 0.00 in 0.01 in 1.10 in (1983)
Month to date precipitation 0.01 0.31  
Year to date precipitation 1.82 3.84  
Since 1 July precipitation 1.03 0.90  
Snow  
Snow 0.00 in - - ()
Month to date snowfall 0.0  
Year to date snowfall 0.0  
Since 1 July snowfall 0.0  
Snow Depth 0.00 in    
Sea Level Pressure  
Sea Level Pressure 29.82 in    
Wind  
Wind Speed 5 mph (NNW)    
Max Wind Speed 12 mph    
Max Gust Speed 15 mph    
Visibility 9 miles    
Events      
T = Trace of Precipitation, MM = Missing Value Source: NWS Daily Summary

Daily Weather History Graph

Daily Weather History Graph

Search for Another Location

Airport:

Trip Planner

Search our weather history database for the weather conditions in past years. The results will help you decide how hot, cold, wet, or windy it might be!

Date:

Astronomy

Sep. 20, 2012 Rise Set
Actual Time 6:33 AM PDT 6:44 PM PDT
Civil Twilight 6:08 AM PDT 7:09 PM PDT
Nautical Twilight 5:39 AM PDT 7:38 PM PDT
Astronomical Twilight 5:09 AM PDT 8:08 PM PDT
Moon 11:39 AM PDT (9/20) 10:07 PM PDT (9/20)
Length of Visible Light 13h 01m
Length of Day
12h 11m
Waxing Crescent, 28% of the Moon is Illuminated
Sep 20
Waxing Crescent
Sep 22
First Quarter
Sep 29
Full
Oct 8
Last Quarter
Oct 15
New

Hourly Weather History & Observations

Time (PDT) Temp. Dew Point Humidity Pressure Visibility Wind Dir Wind Speed Gust Speed Precip Events Conditions
12:53 AM 86.0 °F 46.0 °F 25% 29.86 in 10.0 mi North 5.8 mph - N/A   Clear
1:53 AM 84.9 °F 43.0 °F 23% 29.86 in 10.0 mi North 9.2 mph - N/A   Clear
2:53 AM 84.9 °F 46.0 °F 26% 29.85 in 10.0 mi NW 4.6 mph - N/A   Clear
3:53 AM 82.9 °F 45.0 °F 26% 29.84 in 10.0 mi WNW 4.6 mph - N/A   Clear
4:53 AM 84.9 °F 44.1 °F 24% 29.84 in 10.0 mi NNW 5.8 mph - N/A   Clear
5:53 AM 84.0 °F 43.0 °F 24% 29.85 in 10.0 mi NNW 6.9 mph - N/A   Clear
6:53 AM 84.0 °F 42.1 °F 23% 29.86 in 10.0 mi NNW 8.1 mph - N/A   Clear
7:53 AM 88.0 °F 41.0 °F 19% 29.87 in 10.0 mi NNW 10.4 mph - N/A   Clear
8:53 AM 91.9 °F 41.0 °F 17% 29.87 in 10.0 mi Calm Calm - N/A   Clear
9:53 AM 96.1 °F 45.0 °F 17% 29.87 in 10.0 mi Calm Calm - N/A   Scattered Clouds
10:53 AM 102.0 °F 39.0 °F 11% 29.86 in - North - - N/A   Clear
11:53 AM 104.0 °F 35.1 °F 9% 29.85 in - South 4.6 mph - N/A   Clear
12:53 PM 106.0 °F 35.1 °F 9% 29.83 in 7.0 mi Calm Calm - N/A   Scattered Clouds
1:53 PM 107.1 °F 35.1 °F 8% 29.80 in 10.0 mi Calm Calm - N/A   Scattered Clouds
2:53 PM 108.0 °F 35.1 °F 8% 29.77 in 10.0 mi East 6.9 mph - N/A   Scattered Clouds
3:53 PM 108.0 °F 35.1 °F 8% 29.75 in 10.0 mi NW 6.9 mph - N/A   Scattered Clouds
4:53 PM 107.1 °F 37.0 °F 9% 29.75 in 10.0 mi South 8.1 mph - N/A   Scattered Clouds
5:53 PM 105.1 °F 37.9 °F 10% 29.75 in 10.0 mi East 8.1 mph - N/A   Partly Cloudy
6:53 PM 100.0 °F 42.1 °F 14% 29.76 in 6.0 mi East 6.9 mph - N/A   Clear
7:53 PM 99.0 °F 39.0 °F 13% 29.78 in 8.0 mi ESE 6.9 mph - N/A   Clear
8:53 PM 95.0 °F 42.1 °F 16% 29.80 in 10.0 mi Calm Calm - N/A   Clear
9:53 PM 95.0 °F 42.1 °F 16% 29.81 in 10.0 mi Calm Calm - N/A   Clear
10:53 PM 90.0 °F 46.0 °F 22% 29.81 in 7.0 mi West 3.5 mph - N/A   Clear
11:53 PM 87.1 °F 48.9 °F 27% 29.82 in 7.0 mi Calm Calm - N/A   Clear